Simultaneous Nadir Overpasses (SNOs) Predictions

Prediction of SNOs between NOAA-20 and AQUA Satellite Orbit:

Table of predicted SNOs for the next 14.0 days since TLE Epoch: 6/5/2021
Index Date (NOAA-20) Time (NOAA-20) Lat,Lon (NOAA-20) SZA (NOAA-20 ) Date (AQUA) Time (AQUA) Lat,Lon (AQUA) SZA (AQUA ) Distance(km) Time Diff (sec)
1 06/05/2021 21:23:01 -75.24, -84.18 104.07 06/05/2021 21:24:03 -75.25, -84.14 104.13 1.29 62
2 06/05/2021 22:13:18 76.49, 87.27 74.41 06/05/2021 22:13:03 76.49, 87.25 74.42 0.32 15
3 06/08/2021 13:39:48 -75.65, 32.85 104.79 06/08/2021 13:40:24 -75.66, 32.89 104.83 1.05 36
4 06/08/2021 14:30:07 76.79,-155.82 73.80 06/08/2021 14:29:26 76.78,-155.84 73.84 0.67 41
5 06/11/2021 05:56:34 -76.10, 150.11 105.51 06/11/2021 05:56:44 -76.10, 150.12 105.52 0.26 10
6 06/11/2021 06:46:55 77.12, -38.69 73.19 06/11/2021 06:45:48 77.12, -38.74 73.26 1.55 67
7 06/13/2021 21:22:56 75.53, 96.68 75.07 06/13/2021 21:23:57 75.52, 96.62 75.04 1.71 61
8 06/13/2021 22:13:19 -76.59, -92.38 106.25 06/13/2021 22:13:03 -76.58, -92.43 106.22 1.19 16
9 06/16/2021 13:39:49 75.60,-147.32 74.91 06/16/2021 13:40:23 75.61,-147.23 74.85 2.76 34



Historial Predications of SNOs between NOAA-20 and AQUA
